| time (UTC) | temp C | wind direction | speed KPH | gust KPH | rain 1hr cm | rain 24hr cm | rain mn cm | humidity % | barometer mb |
| 20260509143056 | 20 | 198 | 0.0 | 0.0 | 0.00 | 0.00 | 0.00 | 41 | 1015.2 |
| 20260509141553 | 21 | 313 | 0.0 | 0.0 | 0.00 | 0.00 | 0.00 | 41 | 1015.3 |
| 20260509134544 | 20 | 53 | 0.0 | 0.0 | 0.00 | 0.00 | 0.00 | 44 | 1015.5 |
| 20260509133041 | 19 | 53 | 0.0 | 3.2 | 0.00 | 0.00 | 0.00 | 44 | 1015.8 |
| 20260509131543 | 19 | 221 | 0.0 | 0.0 | 0.00 | 0.00 | 0.00 | 45 | 1016.0 |
| 20260509130038 | 20 | 220 | 0.0 | 0.0 | 0.00 | 0.00 | 0.00 | 44 | 1016.2 |
| 20260509124536 | 20 | 360 | 0.0 | 0.0 | 0.00 | 0.00 | 0.00 | 43 | 1016.3 |
| 20260509123035 | 20 | 44 | 0.0 | 9.7 | 0.00 | 0.00 | 0.00 | 44 | 1016.4 |
| 20260509121534 | 20 | 36 | 0.0 | 4.8 | 0.00 | 0.00 | 0.00 | 44 | 1016.7 |
| 20260509120036 | 20 | 18 | 0.0 | 6.4 | 0.00 | 0.00 | 0.00 | 45 | 1016.8 |
| 20260509114527 | 19 | 338 | 0.0 | 0.0 | 0.00 | 0.00 | 0.00 | 45 | 1017.0 |
| 20260509113024 | 19 | 58 | 0.0 | 4.8 | 0.00 | 0.00 | 0.00 | 45 | 1017.1 |
| 20260509111523 | 20 | 171 | 0.0 | 0.0 | 0.00 | 0.00 | 0.00 | 43 | 1017.3 |
| 20260509110021 | 20 | 173 | 0.0 | 0.0 | 0.00 | 0.00 | 0.00 | 45 | 1017.5 |
| 20260509104519 | 20 | 184 | 0.0 | 0.0 | 0.00 | 0.00 | 0.00 | 47 | 1017.6 |
| 20260509103015 | 20 | 55 | 0.0 | 1.6 | 0.00 | 0.00 | 0.00 | 45 | 1017.8 |
| 20260509101514 | 19 | 54 | 0.0 | 0.0 | 0.00 | 0.00 | 0.00 | 50 | 1017.9 |
| 20260509100011 | 18 | 34 | 0.0 | 11.3 | 0.00 | 0.00 | 0.00 | 49 | 1018.0 |
| 20260509094510 | 19 | 86 | 0.0 | 0.0 | 0.00 | 0.00 | 0.00 | 52 | 1018.0 |
| 20260509093005 | 19 | 98 | 0.0 | 0.0 | 0.00 | 0.00 | 0.00 | 54 | 1018.1 |
| 20260509091501 | 18 | 74 | 0.0 | 0.0 | 0.00 | 0.00 | 0.00 | 55 | 1018.1 |
| 20260509090057 | 18 | 174 | 0.0 | 0.0 | 0.00 | 0.00 | 0.00 | 58 | 1018.2 |
| 20260509084552 | 18 | 71 | 0.0 | 0.0 | 0.00 | 0.00 | 0.00 | 60 | 1018.2 |
| 20260509083051 | 17 | 71 | 0.0 | 0.0 | 0.00 | 0.00 | 0.00 | 62 | 1018.3 |
| 20260509081543 | 16 | 49 | 0.0 | 0.0 | 0.00 | 0.00 | 0.00 | 66 | 1018.3 |
| 20260509080043 | 16 | 49 | 0.0 | 0.0 | 0.00 | 0.00 | 0.00 | 66 | 1018.4 |
| 20260509074534 | 16 | 48 | 0.0 | 6.4 | 0.00 | 0.00 | 0.00 | 66 | 1018.4 |
| 20260509073052 | 15 | 47 | 0.0 | 0.0 | 0.00 | 0.00 | 0.00 | 70 | 1018.5 |
| 20260509071525 | 14 | 63 | 0.0 | 0.0 | 0.00 | 0.00 | 0.00 | 70 | 1018.5 |
| 20260509070022 | 13 | 65 | 0.0 | 3.2 | 0.00 | 0.00 | 0.00 | 72 | 1018.5 |
| 20260509064516 | 13 | 54 | 0.0 | 4.8 | 0.00 | 0.00 | 0.00 | 76 | 1018.4 |
| 20260509063014 | 12 | 69 | 0.0 | 0.0 | 0.00 | 0.00 | 0.00 | 78 | 1018.4 |
| 20260509061506 | 11 | 51 | 0.0 | 4.8 | 0.00 | 0.00 | 0.00 | 78 | 1018.5 |
| 20260509060003 | 11 | 57 | 0.0 | 0.0 | 0.00 | 0.00 | 0.00 | 78 | 1018.5 |
| 20260509054612 | 10 | 53 | 0.0 | 0.0 | 0.00 | 0.00 | 0.00 | 76 | 1018.5 |
| 20260509053057 | 9 | 53 | 0.0 | 0.0 | 0.00 | 0.00 | 0.00 | 74 | 1018.4 |
| 20260509051549 | 8 | 53 | 0.0 | 0.0 | 0.00 | 0.00 | 0.00 | 74 | 1018.3 |
| 20260509050045 | 7 | 53 | 0.0 | 0.0 | 0.00 | 0.00 | 0.00 | 74 | 1018.2 |
| 20260509044541 | 6 | 53 | 0.0 | 0.0 | 0.00 | 0.00 | 0.00 | 75 | 1018.0 |
| 20260509043043 | 6 | 53 | 0.0 | 0.0 | 0.00 | 0.00 | 0.00 | 75 | 1017.9 |
| 20260509041534 | 6 | 53 | 0.0 | 0.0 | 0.00 | 0.00 | 0.00 | 75 | 1017.8 |
| 20260509040043 | 7 | 53 | 0.0 | 0.0 | 0.00 | 0.00 | 0.00 | 75 | 1017.9 |
| 20260509034543 | 7 | 53 | 0.0 | 0.0 | 0.00 | 0.00 | 0.00 | 75 | 1017.9 |
| 20260509033029 | 7 | 53 | 0.0 | 0.0 | 0.00 | 0.00 | 0.00 | 75 | 1018.0 |
| 20260509031534 | 7 | 53 | 0.0 | 0.0 | 0.00 | 0.00 | 0.00 | 76 | 1018.2 |
| 20260509030025 | 7 | 53 | 0.0 | 0.0 | 0.00 | 0.00 | 0.00 | 75 | 1018.2 |
| 20260509024525 | 7 | 53 | 0.0 | 0.0 | 0.00 | 0.00 | 0.00 | 75 | 1018.2 |
| 20260509023024 | 7 | 53 | 0.0 | 0.0 | 0.00 | 0.00 | 0.00 | 75 | 1018.3 |
| 20260509021532 | 7 | 53 | 0.0 | 0.0 | 0.00 | 0.00 | 0.00 | 75 | 1018.3 |
| 20260509020022 | 7 | 53 | 0.0 | 0.0 | 0.00 | 0.00 | 0.00 | 76 | 1018.3 |
| 20260509014520 | 7 | 53 | 0.0 | 0.0 | 0.00 | 0.00 | 0.00 | 77 | 1018.2 |
| 20260509013020 | 7 | 53 | 0.0 | 0.0 | 0.00 | 0.00 | 0.00 | 78 | 1018.4 |
| 20260509011524 | 8 | 53 | 0.0 | 0.0 | 0.00 | 0.00 | 0.00 | 79 | 1018.4 |
| 20260509010019 | 8 | 53 | 0.0 | 0.0 | 0.00 | 0.00 | 0.00 | 79 | 1018.3 |
| 20260509004510 | 9 | 53 | 0.0 | 0.0 | 0.00 | 0.00 | 0.00 | 80 | 1018.3 |
| 20260509003017 | 9 | 53 | 0.0 | 0.0 | 0.00 | 0.00 | 0.00 | 79 | 1018.4 |
| 20260509001505 | 10 | 53 | 0.0 | 0.0 | 0.00 | 0.00 | 0.00 | 79 | 1018.3 |
| 20260509000003 | 10 | 53 | 0.0 | 0.0 | 0.00 | 0.00 | 0.00 | 79 | 1018.4 |
| 20260508234556 | 10 | 57 | 0.0 | 0.0 | 0.00 | 0.00 | 0.00 | 79 | 1018.3 |
| 20260508233055 | 10 | 60 | 0.0 | 3.2 | 0.00 | 0.00 | 0.00 | 79 | 1018.3 |
| 20260508231555 | 10 | 53 | 0.0 | 8.0 | 0.00 | 0.00 | 0.00 | 79 | 1018.2 |
| 20260508230058 | 10 | 76 | 0.0 | 1.6 | 0.00 | 0.00 | 0.00 | 79 | 1018.1 |
| 20260508224547 | 10 | 104 | 0.0 | 0.0 | 0.00 | 0.00 | 0.00 | 79 | 1018.1 |
| 20260508223051 | 10 | 121 | 0.0 | 0.0 | 0.00 | 0.00 | 0.00 | 79 | 1018.2 |
| 20260508221526 | 10 | 121 | 0.0 | 0.0 | 0.00 | 0.00 | 0.00 | 79 | 1018.2 |
| 20260508220025 | 10 | 121 | 0.0 | 0.0 | 0.00 | 0.00 | 0.00 | 79 | 1018.1 |
| 20260508214526 | 10 | 121 | 0.0 | 0.0 | 0.00 | 0.00 | 0.00 | 79 | 1018.0 |
| 20260508213031 | 11 | 121 | 0.0 | 0.0 | 0.00 | 0.00 | 0.00 | 78 | 1018.0 |
| 20260508211538 | 11 | 121 | 0.0 | 0.0 | 0.00 | 0.00 | 0.00 | 78 | 1018.0 |
| 20260508210021 | 11 | 121 | 0.0 | 0.0 | 0.00 | 0.00 | 0.00 | 77 | 1017.9 |
| 20260508204530 | 11 | 121 | 0.0 | 0.0 | 0.00 | 0.00 | 0.00 | 76 | 1017.9 |
| 20260508203020 | 11 | 121 | 0.0 | 0.0 | 0.00 | 0.00 | 0.00 | 74 | 1017.9 |
| 20260508201520 | 12 | 121 | 0.0 | 0.0 | 0.00 | 0.00 | 0.00 | 71 | 1017.9 |
| 20260508200018 | 13 | 121 | 0.0 | 0.0 | 0.00 | 0.00 | 0.00 | 69 | 1017.8 |
| 20260508194518 | 13 | 121 | 0.0 | 0.0 | 0.00 | 0.00 | 0.00 | 67 | 1017.6 |
| 20260508193017 | 14 | 121 | 0.0 | 0.0 | 0.00 | 0.00 | 0.00 | 62 | 1017.5 |
| 20260508191517 | 15 | 121 | 0.0 | 0.0 | 0.00 | 0.00 | 0.00 | 59 | 1017.3 |
| 20260508190023 | 16 | 121 | 0.0 | 0.0 | 0.00 | 0.00 | 0.00 | 54 | 1017.1 |
| 20260508184516 | 16 | 121 | 0.0 | 0.0 | 0.00 | 0.00 | 0.00 | 51 | 1017.0 |
| 20260508183016 | 17 | 121 | 0.0 | 0.0 | 0.00 | 0.00 | 0.00 | 48 | 1016.8 |
| 20260508181514 | 17 | 121 | 0.0 | 0.0 | 0.00 | 0.00 | 0.00 | 48 | 1016.7 |
| 20260508180019 | 17 | 121 | 0.0 | 0.0 | 0.00 | 0.00 | 0.00 | 45 | 1016.6 |
| 20260508174513 | 17 | 123 | 0.0 | 0.0 | 0.00 | 0.00 | 0.00 | 46 | 1016.5 |
| 20260508173013 | 18 | 178 | 0.0 | 0.0 | 0.00 | 0.00 | 0.00 | 46 | 1016.5 |
| 20260508171514 | 18 | 111 | 0.0 | 0.0 | 0.00 | 0.00 | 0.00 | 45 | 1016.4 |
| 20260508170011 | 18 | 65 | 0.0 | 0.0 | 0.00 | 0.00 | 0.00 | 43 | 1016.4 |
| 20260508164513 | 18 | 284 | 0.0 | 0.0 | 0.00 | 0.00 | 0.00 | 44 | 1016.3 |
| 20260508163009 | 18 | 259 | 0.0 | 0.0 | 0.00 | 0.00 | 0.00 | 43 | 1016.4 |
| 20260508161508 | 18 | 205 | 0.0 | 0.0 | 0.00 | 0.00 | 0.00 | 43 | 1016.4 |
| 20260508160012 | 18 | 208 | 0.0 | 4.8 | 0.00 | 0.00 | 0.00 | 44 | 1016.5 |
| 20260508154506 | 18 | 5 | 0.0 | 0.0 | 0.00 | 0.00 | 0.00 | 44 | 1016.5 |
| 20260508153006 | 18 | 355 | 0.0 | 0.0 | 0.00 | 0.00 | 0.00 | 44 | 1016.6 |
| 20260508151502 | 17 | 355 | 0.0 | 0.0 | 0.00 | 0.00 | 0.00 | 45 | 1016.7 |
| 20260508150100 | 17 | 257 | 0.0 | 0.0 | 0.00 | 0.00 | 0.00 | 47 | 1016.7 |
| 20260508144558 | 17 | 60 | 0.0 | 0.0 | 0.00 | 0.00 | 0.00 | 50 | 1016.8 |